Weather History for Marshall, MI

Change the Weather History Date:

Friday, April 19, 2013

  Actual Average (KBTL) Record (KBTL)
Temperature  
Mean Temperature 46 °F 50 °F  
Max Temperature 59 °F 62 °F 80 °F (2005)
Min Temperature 33 °F 37 °F 28 °F (1997)
Degree Days  
Heating Degree Days 19 16  
Month to date heating degree days 363  
Since 1 July heating degree days 6238  
Cooling Degree Days 0 0  
Month to date cooling degree days 0  
Year to date cooling degree days 0  
Moisture  
Dew Point 35 °F    
Average Humidity 82    
Maximum Humidity 93    
Minimum Humidity 65    
Precipitation  
Precipitation 0.00 in 0.09 in 0.83 in (2011)
Month to date precipitation 1.75  
Year to date precipitation 6.66  
Sea Level Pressure  
Sea Level Pressure 29.56 in    
Wind  
Wind Speed 15 mph (SW)    
Max Wind Speed 29 mph    
Max Gust Speed 38 mph    
Visibility 9 miles    
Events Rain , Snow    
T = Trace of Precipitation, MM = Missing Value Source: NWS Daily Summary

Daily Weather History Graph

Daily Weather History Graph

Search for Another Location

Airport:

Trip Planner

Search our weather history database for the weather conditions in past years. The results will help you decide how hot, cold, wet, or windy it might be!

Date:

Astronomy

Apr. 19, 2013 Rise Set
Actual Time 6:52 AM EDT 8:26 PM EDT
Civil Twilight 6:22 AM EDT 8:55 PM EDT
Nautical Twilight 5:47 AM EDT 9:31 PM EDT
Astronomical Twilight 5:09 AM EDT 10:09 PM EDT
Moon 2:03 PM EDT (4/19) 3:14 AM EDT (4/19)
Length of Visible Light 14h 32m
Length of Day
13h 33m
First Quarter, 61% of the Moon is Illuminated
Apr 19
First Quarter
Apr 25
Full
May 2
Last Quarter
May 9
New
May 18
First Quarter

Hourly Weather History & Observations

Time (EDT) Temp. Windchill Dew Point Humidity Pressure Visibility Wind Dir Wind Speed Gust Speed Precip Events Conditions
12:14 AM 57.9 °F - 55.8 °F 92% 29.52 in 10.0 mi SE 9.2 mph 16.1 mph N/A Rain Light Rain
12:34 AM 57.9 °F - 55.8 °F 92% 29.50 in 10.0 mi SSE 8.1 mph - N/A Rain Rain
12:53 AM 57.9 °F - 55.8 °F 92% 29.49 in 10.0 mi SSE 12.7 mph - N/A Rain Light Rain
1:14 AM 58.5 °F - 56.3 °F 93% 29.48 in 10.0 mi SSE 8.1 mph - N/A Rain Rain
1:33 AM 58.8 °F - 56.7 °F 93% 29.47 in 10.0 mi South 8.1 mph 13.8 mph N/A Rain Rain
1:53 AM 59.0 °F - 56.8 °F 93% 29.45 in 10.0 mi South 9.2 mph - N/A Rain Rain
2:14 AM 59.0 °F - 56.8 °F 93% 29.44 in 10.0 mi South 10.4 mph - N/A Rain Rain
2:33 AM 59.0 °F - 56.8 °F 93% 29.42 in 7.0 mi South 9.2 mph - N/A Rain Rain
2:54 AM 59.2 °F - 57.0 °F 93% 29.43 in 5.0 mi SW 15.0 mph 23.0 mph N/A Rain Rain
3:13 AM 55.2 °F - 52.9 °F 92% 29.44 in 7.0 mi WSW 10.4 mph - N/A Rain Rain
3:34 AM 51.1 °F - 48.7 °F 92% 29.44 in 10.0 mi WSW 13.8 mph 23.0 mph N/A Rain Rain
3:54 AM 48.9 °F - 46.8 °F 92% 29.46 in 10.0 mi West 19.6 mph 24.2 mph N/A Rain Rain
4:13 AM 46.0 °F 40.6 °F 43.9 °F 92% 29.43 in 10.0 mi West 11.5 mph - N/A Rain Rain
4:34 AM 45.1 °F 39.5 °F 43.0 °F 92% 29.43 in 10.0 mi West 11.5 mph - N/A Rain Rain
4:54 AM 43.9 °F 36.5 °F 41.7 °F 92% 29.43 in 5.0 mi West 16.1 mph 19.6 mph N/A Rain Rain
5:13 AM 42.8 °F 34.3 °F 40.5 °F 91% 29.44 in 10.0 mi West 19.6 mph 25.3 mph N/A Rain Light Rain
5:34 AM 40.8 °F 31.7 °F 38.5 °F 91% 29.44 in 5.0 mi West 19.6 mph 24.2 mph N/A   Drizzle
5:54 AM 40.1 °F 32.4 °F 37.8 °F 91% 29.44 in 7.0 mi West 13.8 mph 21.9 mph N/A   Light Drizzle
6:13 AM 40.1 °F 31.3 °F 37.8 °F 91% 29.45 in 10.0 mi WSW 17.3 mph - N/A   Overcast
6:54 AM 37.9 °F 27.3 °F 34.3 °F 87% 29.46 in 10.0 mi West 21.9 mph 26.5 mph N/A   Overcast
7:13 AM 37.6 °F 27.4 °F 33.8 °F 86% 29.46 in 10.0 mi West 19.6 mph 27.6 mph N/A   Overcast
7:34 AM 37.6 °F 28.8 °F 33.4 °F 85% 29.46 in 10.0 mi West 15.0 mph 21.9 mph N/A   Overcast
7:54 AM 37.6 °F 27.1 °F 33.1 °F 84% 29.47 in 10.0 mi WSW 20.7 mph 25.3 mph N/A   Overcast
8:13 AM 37.9 °F 27.3 °F 32.9 °F 82% 29.48 in 10.0 mi WSW 21.9 mph 29.9 mph N/A   Overcast
8:34 AM 37.6 °F 28.1 °F 31.6 °F 79% 29.48 in 10.0 mi WSW 17.3 mph 27.6 mph N/A   Overcast
8:53 AM 37.4 °F 28.5 °F 31.3 °F 79% 29.48 in 10.0 mi WSW 15.0 mph 24.2 mph N/A   Overcast
9:13 AM 37.6 °F 28.8 °F 31.8 °F 80% 29.48 in 10.0 mi SW 15.0 mph 19.6 mph N/A   Overcast
9:34 AM 37.6 °F 27.7 °F 29.5 °F 73% 29.49 in 10.0 mi WSW 18.4 mph 33.4 mph N/A   Overcast
9:53 AM 37.6 °F 28.4 °F 29.8 °F 74% 29.49 in 10.0 mi SW 16.1 mph 29.9 mph N/A   Overcast
10:14 AM 37.6 °F 28.4 °F 30.2 °F 75% 29.49 in 10.0 mi SW 16.1 mph 28.8 mph N/A   Overcast
10:34 AM 37.6 °F 25.9 °F 29.5 °F 73% 29.50 in 10.0 mi WSW 26.5 mph 32.2 mph N/A   Overcast
10:53 AM 37.6 °F 28.4 °F 29.1 °F 72% 29.51 in 10.0 mi WSW 16.1 mph 27.6 mph N/A   Overcast
11:14 AM 37.6 °F 26.3 °F 28.8 °F 70% 29.52 in 10.0 mi SW 24.2 mph 31.1 mph N/A   Overcast
11:34 AM 37.9 °F 27.6 °F 29.5 °F 72% 29.52 in 10.0 mi SW 20.7 mph 27.6 mph N/A   Overcast
11:53 AM 37.6 °F 26.6 °F 29.7 °F 73% 29.53 in 10.0 mi SW 23.0 mph 34.5 mph N/A   Overcast
12:14 PM 37.4 °F 26.6 °F 28.4 °F 70% 29.54 in 10.0 mi SW 21.9 mph 35.7 mph N/A   Overcast
12:33 PM 38.1 °F 27.1 °F 27.9 °F 67% 29.54 in 10.0 mi SW 24.2 mph 34.5 mph N/A   Overcast
12:53 PM 39.0 °F 27.4 °F 28.0 °F 65% 29.54 in 10.0 mi WSW 28.8 mph 38.0 mph N/A   Overcast
1:14 PM 38.8 °F 29.7 °F 28.2 °F 66% 29.53 in 10.0 mi SW 17.3 mph 29.9 mph N/A   Overcast
1:33 PM 38.1 °F 27.6 °F 28.9 °F 70% 29.54 in 10.0 mi WSW 21.9 mph 28.8 mph N/A   Overcast
1:53 PM 39.0 °F 29.3 °F 28.8 °F 67% 29.54 in 10.0 mi WSW 19.6 mph 31.1 mph N/A   Overcast
2:14 PM 38.5 °F 27.5 °F 30.6 °F 73% 29.55 in 10.0 mi SW 24.2 mph 29.9 mph N/A   Overcast
2:33 PM 38.8 °F 28.3 °F 30.0 °F 71% 29.55 in 10.0 mi SW 23.0 mph 33.4 mph N/A   Overcast
2:53 PM 38.7 °F 29.1 °F 28.6 °F 67% 29.57 in 10.0 mi SW 18.4 mph 33.4 mph N/A   Overcast
3:14 PM 38.5 °F 28.1 °F 28.9 °F 69% 29.58 in 10.0 mi SW 21.9 mph 28.8 mph N/A   Overcast
3:33 PM 38.1 °F 27.1 °F 28.9 °F 70% 29.59 in 10.0 mi SW 24.2 mph 31.1 mph N/A   Overcast
3:54 PM 38.1 °F 27.6 °F 29.3 °F 71% 29.59 in 10.0 mi WSW 21.9 mph 32.2 mph N/A   Overcast
4:14 PM 37.9 °F 27.9 °F 30.0 °F 73% 29.60 in 10.0 mi WSW 19.6 mph 33.4 mph N/A   Overcast
4:33 PM 37.2 °F 27.9 °F 31.6 °F 80% 29.61 in 10.0 mi WSW 16.1 mph 26.5 mph N/A Snow Light Snow
4:54 PM 36.0 °F 26.0 °F 31.8 °F 85% 29.62 in 4.0 mi SW 17.3 mph 24.2 mph N/A Snow Light Snow
5:14 PM 36.0 °F 25.3 °F 32.0 °F 86% 29.64 in 10.0 mi WSW 19.6 mph 28.8 mph N/A Snow Light Snow
5:33 PM 36.9 °F 27.1 °F 31.5 °F 81% 29.64 in 10.0 mi WSW 17.3 mph 29.9 mph N/A   Overcast
5:54 PM 37.0 °F 27.0 °F 29.8 °F 75% 29.64 in 10.0 mi WSW 18.4 mph 33.4 mph N/A   Overcast
6:13 PM 37.0 °F 27.0 °F 30.4 °F 77% 29.66 in 10.0 mi WSW 18.4 mph 26.5 mph N/A   Overcast
6:33 PM 37.0 °F 25.9 °F 30.2 °F 76% 29.66 in 10.0 mi WSW 23.0 mph 26.5 mph N/A   Overcast
6:54 PM 36.5 °F 25.7 °F 30.0 °F 77% 29.68 in 10.0 mi WSW 20.7 mph 28.8 mph N/A   Overcast
7:13 PM 36.3 °F 26.4 °F 30.7 °F 80% 29.68 in 10.0 mi SW 17.3 mph 20.7 mph N/A   Overcast
7:33 PM 36.5 °F 27.0 °F 29.8 °F 77% 29.69 in 10.0 mi SW 16.1 mph 27.6 mph N/A   Overcast
7:54 PM 36.5 °F 27.4 °F 29.8 °F 77% 29.69 in 10.0 mi SW 15.0 mph 23.0 mph N/A   Overcast
8:13 PM 36.3 °F 26.4 °F 29.8 °F 77% 29.71 in 10.0 mi WSW 17.3 mph 21.9 mph N/A   Overcast
8:33 PM 36.0 °F 26.7 °F 30.0 °F 79% 29.72 in 10.0 mi SW 15.0 mph 23.0 mph N/A Snow Light Snow
8:54 PM 35.8 °F 27.3 °F 30.4 °F 81% 29.72 in 10.0 mi SW 12.7 mph 23.0 mph N/A Snow Light Snow
9:13 PM 35.4 °F 27.3 °F 30.6 °F 82% 29.73 in 10.0 mi SW 11.5 mph 18.4 mph N/A Snow Light Snow
9:33 PM 35.4 °F 25.6 °F 30.7 °F 83% 29.74 in 10.0 mi SW 16.1 mph 21.9 mph N/A Snow Light Snow
9:54 PM 34.3 °F 25.0 °F 30.9 °F 87% 29.75 in 3.0 mi WSW 13.8 mph 19.6 mph N/A Snow Light Snow
10:13 PM 33.6 °F 24.1 °F 30.9 °F 90% 29.76 in 10.0 mi WSW 13.8 mph 20.7 mph N/A Snow Light Snow
10:34 PM 33.6 °F 23.7 °F 31.1 °F 90% 29.76 in 3.0 mi WSW 15.0 mph 20.7 mph N/A Snow Light Snow
10:53 PM 33.1 °F 22.2 °F 31.1 °F 92% 29.76 in 4.0 mi WSW 17.3 mph 21.9 mph N/A Snow Light Snow
11:13 PM 33.6 °F 25.0 °F 31.1 °F 90% 29.76 in 10.0 mi WSW 11.5 mph - N/A   Overcast
11:34 PM 33.3 °F 22.8 °F 30.6 °F 90% 29.76 in 10.0 mi WSW 16.1 mph 23.0 mph N/A Snow Light Snow
11:53 PM 33.3 °F 23.7 °F 30.6 °F 90% 29.77 in 2.5 mi West 13.8 mph - N/A Snow Snow